Lexington Weather

Lexington, Massachusetts, USA

24°F
1/21/2021 9:35am 
  • Lexington Conditions: Clear
  • Temperature: 23.5°F / -4.7°CWarmer 1.6°F than last hour.
  • Dew Point: 12.7°FIncreased 1.0°Fsince last hour.
  • Relative Humidity: 63%Decreased 1.0% since last hour.
  • Wind: Wind from SSW SSW Calm, 10-min avg: 1 mph, gust: 6 mph
  • Barometer: 29.77 inFalling 0.03  inHg/hr Falling Slowly
  • Visibility: 10 miles
  • Snow Today: Trace
  •   

Regional Weather Roundup
for Boston / Norton, MA

        
000
ASUS41 KBOX 162205
RWRBOX

REGIONAL WEATHER ROUNDUP
NATIONAL WEATHER SERVICE BOSTON/NORTON MA
500 PM EST SAT JAN 16 2021

NOTE:  "FAIR" INDICATES FEW OR NO CLOUDS BELOW 12,000 FEET WITH NO 
SIGNIFICANT WEATHER AND/OR OBSTRUCTIONS TO VISIBILITY.

MAZALL-162300-
EASTERN MASSACHUSETTS
  
CITY           SKY/WX    TMP DP  RH WIND       PRES   REMARKS
BOSTON         CLOUDY    46  39  76 SW16      29.27R                  
BEVERLY        CLOUDY    48  41  76 W16G24    29.24R                  
LAWRENCE       NOT AVBL                                               
BEDFORD        MOCLDY    45  42  89 SW13G21   29.26R                  
BLUE HILL        N/A     44  39  82 W12G18    29.25R                  
NORWOOD        CLOUDY    48  38  68 W13       29.28R                  
MARSHFIELD     CLOUDY    50  43  76 SW8G16    29.27R                  
PLYMOUTH       CLOUDY    45  41  86 SW14      29.29R                  
TAUNTON        CLOUDY    47  41  80 SW7       29.29R                  
NEW BEDFORD    CLOUDY    45  40  82 SW12      29.30R                  
$$

MAZALL-162300-
CAPE COD AND THE ISLANDS
  
CITY           SKY/WX    TMP DP  RH WIND       PRES   REMARKS
FALMOUTH       CLOUDY    43  41  93 SW20G31   29.30S                  
HYANNIS        CLOUDY    45  41  86 SW10      29.30S                  
CHATHAM        CLOUDY    44  41  89 SW10G16   29.34R                  
NANTUCKET      CLOUDY    45  43  93 SW13      29.35R FOG              
MARTHAS VNYRD  CLOUDY    45  42  89 W12G20    29.33S                  
$$
 
MAZALL-162300-
CENTRAL AND WESTERN MASSACHUSETTS
  
CITY           SKY/WX    TMP DP  RH WIND       PRES   REMARKS
WORCESTER      CLOUDY    39  36  89 W13       29.26R WCI  31          
FITCHBURG      CLOUDY    41  39  93 SW9       29.27R                  
ORANGE         CLOUDY    38  38 100 SW6       29.28R                  
SPRINGFIELD    CLOUDY    40  33  77 W15       29.30R WCI  31          
WESTFIELD      CLOUDY    40  33  76 W6        29.30S                  
NORTH ADAMS    CLOUDY    37  32  82 W9        29.31R WCI  30          
PITTSFIELD     LGT SNOW  34  31  88 W9        29.29R FOG     WCI  27  
$$
 
RIZALL-162300-
RHODE ISLAND
  
CITY           SKY/WX    TMP DP  RH WIND       PRES   REMARKS
PROVIDENCE     CLOUDY    45  40  82 SW14G24   29.30S                  
NEWPORT        CLOUDY    44  39  82 VRB5      29.31S                  
BLOCK ISLAND   CLOUDY    43  39  86 W13       29.34S                  
SMITHFIELD     CLOUDY    43  41  93 W12       29.29R                  
WESTERLY       MOCLDY    41  38  89 SW7       29.33S                  
$$
 
CTZALL-162300-
CONNECTICUT
  
CITY           SKY/WX    TMP DP  RH WIND       PRES   REMARKS
BRADLEY INTL   MOCLDY    41  35  79 W5        29.31S                  
HARTFORD       CLOUDY    44  35  70 W8        29.33R                  
BRIDGEPORT     CLOUDY    43  34  70 W10       29.35R                  
DANBURY        CLOUDY    40  33  76 W8        29.35R                  
GROTON         NOT AVBL                                               
NEW HAVEN      CLOUDY    45  37  73 W7        29.34R                  
CHESTER        MOCLDY   N/A N/A N/A W7        29.32S                  
MERIDEN        LGT RAIN  42  36  79 CALM      29.33S                  
WILLIMANTIC    CLOUDY    42  37  82 SW7       29.31S                  
OXFORD         MOCLDY    39  37  92 W6        29.33R                  
$$

MEZ002-015-021-024-NHZ003-005-008-011-012-014-VTZ005-008-162300-
NORTHERN NEW ENGLAND
  
CITY           SKY/WX    TMP DP  RH WIND       PRES   REMARKS
PORTLAND ME    CLOUDY    47  47 100 S12       29.22F                  
BANGOR ME      FLURRIES  39  34  82 E17G32    29.36F WCI  30          
CONCORD NH     CLOUDY    41  40  96 SW8       29.21R                  
MANCHESTER NH  MOCLDY    45  39  79 SW8       29.22R                  
NASHUA NH      CLOUDY    42  40  92 VRB6      29.25R                  
PORTSMOUTH NH  MOCLDY    48  47  98 S7        29.19F                  
JAFFREY NH     CLOUDY    37  35  92 SW6       29.24S FOG              
KEENE NH       CLOUDY    36  36 100 CALM      29.26S                  
BURLINGTON VT  LGT SNOW  33  31  92 W5        29.27F VSB 1   WCI  29  
MT. WASHINGTON SNOW      25  25 100 SE45G58     N/A  VSB 1/16WCI   5  
$$

NYZ052-076-162300-
EASTERN NEW YORK
  
CITY           SKY/WX    TMP DP  RH WIND       PRES   REMARKS
ALBANY         CLOUDY    35  31  85 W14       29.34R WCI  26          
NEW YORK CITY  MOCLDY    45  31  58 W18       29.39R                  
$$
 
ANZALL-162300-
MARINE OBSERVATIONS
  
STATION/POSITION TIME  TEMP    WIND        PRES    VSBY  WAVE
                       AIR SEA DIR/SP/G                  HT/PER
                 (UTC) (F)     (DEG/KT/KT) (MB)    (MI)  (FT/S)
BOSTON BUOY      2140   47 44  240/ 14/ 19  990.9R
BUZZARDS BAY     2100          240/ 21/ 23  993.5F
NANTUCKET SOUND  2140      41  230/ 14/ 19   N/A
MASS BAY-STELLWA 2104   47     190/ 12/ 16  988.4R  1 7/8 12/11
ISLE OF SHOALS   2100   46     170/ 19/ 20  988.9R
S OF BLOCK IS    2126      47                N/A          13/10
$$

......................KEY.........................
  SKY/WX - SKY CONDITION/PRESENT WEATHER
  TMP    - TEMPERATURE IN FAHRENHEIT
  DWPT   - DEWPOINT IN FAHRENHEIT
  RH     - RELATIVE HUMIDITY IN PERCENT
  WIND   - DIRECTION AND SPEED IN MPH
  PRES   - MEAN SEA LEVEL PRESSURE IN INCHES OF HG
  WCI    - WIND CHILL INDEX
  VSB    - VISIBILITY IN MILES
  HX     - HEAT INDEX
  TC     - TEMPERATURE IN CELSIUS
  VRB    - VARIABLE WIND DIRECTION
  N/A    - NOT AVAILABLE
  
      

Other recent Regional Weather Roundups

Thu Jan 21, 9:04am

Thu Jan 21, 7:04am

Thu Jan 21, 6:04am

Thu Jan 21, 5:04am

Thu Jan 21, 4:04am

Thu Jan 21, 3:04am

Thu Jan 21, 2:04am

Thu Jan 21, 1:04am

Thu Jan 21, 12:04am

Wed Jan 20, 11:04pm

Wed Jan 20, 10:05pm

Wed Jan 20, 9:04pm

Wed Jan 20, 8:04pm

Wed Jan 20, 7:04pm

Wed Jan 20, 6:05pm

Wed Jan 20, 5:05pm

Wed Jan 20, 1:04pm

Wed Jan 20, 12:04pm

Wed Jan 20, 11:04am

Wed Jan 20, 10:04am

Wed Jan 20, 9:05am

Wed Jan 20, 8:04am

Wed Jan 20, 7:04am

Wed Jan 20, 6:04am

Wed Jan 20, 5:04am

Wed Jan 20, 4:04am

Wed Jan 20, 3:05am

Wed Jan 20, 2:04am

Wed Jan 20, 1:04am

Wed Jan 20, 12:04am

Tue Jan 19, 11:04pm

Tue Jan 19, 10:04pm

Tue Jan 19, 9:04pm

Tue Jan 19, 8:04pm

Tue Jan 19, 7:04pm

Tue Jan 19, 6:05pm

Tue Jan 19, 5:04pm

Tue Jan 19, 4:05pm

Tue Jan 19, 3:04pm

Tue Jan 19, 2:04pm

Tue Jan 19, 1:04pm

Tue Jan 19, 12:05pm

Tue Jan 19, 11:04am

Tue Jan 19, 10:05am

Tue Jan 19, 9:04am

Tue Jan 19, 8:04am

Tue Jan 19, 7:04am

Tue Jan 19, 6:04am

Tue Jan 19, 5:04am

Tue Jan 19, 4:04am

Tue Jan 19, 3:04am

Tue Jan 19, 2:04am

Tue Jan 19, 1:04am

Tue Jan 19, 12:04am

Mon Jan 18, 11:04pm

Mon Jan 18, 10:04pm

Mon Jan 18, 9:04pm

Mon Jan 18, 8:05pm

Mon Jan 18, 7:04pm

Mon Jan 18, 6:05pm

Mon Jan 18, 5:04pm

Mon Jan 18, 4:04pm

Mon Jan 18, 3:04pm

Mon Jan 18, 2:04pm

Mon Jan 18, 1:04pm

Mon Jan 18, 12:04pm

Mon Jan 18, 11:04am

Mon Jan 18, 10:04am

Mon Jan 18, 9:04am

Mon Jan 18, 8:04am

Mon Jan 18, 7:04am

Mon Jan 18, 6:04am

Mon Jan 18, 5:04am

Mon Jan 18, 4:04am

Mon Jan 18, 3:04am

Mon Jan 18, 2:04am

Mon Jan 18, 1:04am

Mon Jan 18, 12:04am

Sun Jan 17, 11:04pm

Sun Jan 17, 10:04pm

Sun Jan 17, 9:04pm

Sun Jan 17, 8:04pm

Sun Jan 17, 7:04pm

Sun Jan 17, 6:04pm

Sun Jan 17, 5:04pm

Sun Jan 17, 4:05pm

Sun Jan 17, 3:04pm

Sun Jan 17, 2:04pm

Sun Jan 17, 1:04pm

Sun Jan 17, 12:04pm

Sun Jan 17, 11:04am

Sun Jan 17, 10:04am

Sun Jan 17, 9:04am

Sun Jan 17, 8:04am

Sun Jan 17, 7:04am

Sun Jan 17, 6:04am

Sun Jan 17, 5:04am

Sun Jan 17, 4:04am

Sun Jan 17, 3:04am

Sun Jan 17, 2:04am

Sun Jan 17, 1:04am

Sun Jan 17, 12:04am

Sat Jan 16, 11:05pm

Sat Jan 16, 10:04pm

Sat Jan 16, 9:04pm

Sat Jan 16, 8:05pm

Sat Jan 16, 7:04pm

Sat Jan 16, 6:04pm

Sat Jan 16, 4:05pm

Sat Jan 16, 3:05pm

Sat Jan 16, 2:04pm

Sat Jan 16, 1:04pm

Sat Jan 16, 12:04pm

Sat Jan 16, 11:04am

Sat Jan 16, 10:05am

Sat Jan 16, 9:04am

Sat Jan 16, 8:04am

Sat Jan 16, 7:04am

Sat Jan 16, 6:04am

Sat Jan 16, 5:04am

Sat Jan 16, 4:04am

Sat Jan 16, 3:05am

Sat Jan 16, 2:04am

Sat Jan 16, 1:04am

Sat Jan 16, 12:05am

Fri Jan 15, 11:05pm

Fri Jan 15, 10:04pm

Fri Jan 15, 9:04pm

Fri Jan 15, 8:04pm

Fri Jan 15, 7:05pm

Fri Jan 15, 6:05pm

Fri Jan 15, 5:05pm

Fri Jan 15, 4:05pm

Fri Jan 15, 3:04pm

Fri Jan 15, 2:05pm

Fri Jan 15, 1:04pm

Fri Jan 15, 12:05pm

Fri Jan 15, 11:04am

Fri Jan 15, 10:04am

Fri Jan 15, 9:05am

Fri Jan 15, 8:04am

Fri Jan 15, 7:04am

Fri Jan 15, 6:04am

Fri Jan 15, 5:05am

Fri Jan 15, 4:04am

Fri Jan 15, 3:04am

Fri Jan 15, 2:04am

Fri Jan 15, 1:04am

Fri Jan 15, 12:05am

Thu Jan 14, 11:04pm

Thu Jan 14, 10:04pm

Thu Jan 14, 9:04pm

Thu Jan 14, 8:05pm

Thu Jan 14, 7:04pm

Thu Jan 14, 6:04pm

Thu Jan 14, 5:04pm

Thu Jan 14, 4:05pm

Thu Jan 14, 3:04pm

Thu Jan 14, 2:04pm

Thu Jan 14, 1:04pm

Thu Jan 14, 12:05pm

Thu Jan 14, 11:05am

Thu Jan 14, 10:04am

Thu Jan 14, 9:04am

Thu Jan 14, 8:04am

Thu Jan 14, 7:04am

Thu Jan 14, 6:04am

Thu Jan 14, 5:04am

Thu Jan 14, 4:04am

Thu Jan 14, 3:04am

Thu Jan 14, 2:04am

Thu Jan 14, 1:04am

Thu Jan 14, 12:04am

Wed Jan 13, 11:04pm

Wed Jan 13, 10:04pm

Wed Jan 13, 9:04pm

Wed Jan 13, 8:05pm

Wed Jan 13, 7:04pm

Wed Jan 13, 6:04pm

Wed Jan 13, 5:04pm

Wed Jan 13, 4:04pm

Wed Jan 13, 3:05pm

Wed Jan 13, 2:04pm

Wed Jan 13, 1:04pm

Wed Jan 13, 12:04pm

Wed Jan 13, 11:04am

Wed Jan 13, 10:04am

Wed Jan 13, 9:05am

Wed Jan 13, 8:04am

Wed Jan 13, 7:04am

Wed Jan 13, 6:04am

Wed Jan 13, 5:04am

Wed Jan 13, 4:04am

Wed Jan 13, 3:04am

Wed Jan 13, 2:04am

Wed Jan 13, 1:04am

Wed Jan 13, 12:05am

Tue Jan 12, 11:04pm

Tue Jan 12, 10:04pm

Tue Jan 12, 9:04pm

Tue Jan 12, 8:05pm

Tue Jan 12, 7:04pm

Meta data:

ID: db01c00c-8d77-4fa6-85ed-257869788507
Link: https://api.weather.gov/products/db01c00c-8d77-4fa6-85ed-257869788507